Regional Weather Roundup
Issued by NWS

Home | Current Version | Previous Version | Graphics & Text | Print | Product List | Glossary On
Versions: 1 2 3 4 5 6 7 8 9 10 11 12 13 14 15 16 17 18 19 20 21 22 23 24 25 26 27 28 29 30 31 32 33 34 35 36 37 38 39 40 41 42 43 44 45 46 47 48 49 50
000
ASUS43 KMPX 211301
RWRMN
WEATHER ROUNDUP FOR MINNESOTA
NATIONAL WEATHER SERVICE TWIN CITIES/CHANHASSEN MN
800 AM CDT FRI JUL 21 2017


NOTE: "FAIR" INDICATES FEW OR NO CLOUDS BELOW 12,000 FEET WITH NO
SIGNIFICANT WEATHER AND/OR OBSTRUCTIONS TO VISIBILITY. N/A MEANS
CURRENT SKY AND/OR WEATHER CONDITIONS ARE NOT AVAILABLE.

MNZ060>063-068>070-211400-
   Twin Cities Metro

CITY           SKY/WX    TMP DP  RH WIND       PRES   REMARKS
TWIN CITIES    CLOUDY    73  67  81 SE9       29.91R
ST PAUL        CLOUDY    73  68  84 SE7       29.91R
CRYSTAL        CLOUDY    73  65  75 SE3       29.90R
BLAINE         PTSUNNY   73  72  94 E8        29.91R
LAKEVILLE      PTSUNNY   66  66 100 S3        29.93R
EDEN PRAIRIE   PTSUNNY   73  68  84 SE6       29.91R
SOUTH ST PAUL  PTSUNNY   71  69  90 E3        29.91S
LAKE ELMO      FAIR      72  70  94 CALM      29.94R
$$
MNZ001>005-007-008-013>017-022>024-027-028-211400-
   Northwest Minnesota

CITY           SKY/WX    TMP DP  RH WIND       PRES   REMARKS
BEMIDJI        CLOUDY    68  62  80 E9        29.90R
HALLOCK        CLOUDY    70  61  73 E8        29.81F
ROSEAU         CLOUDY    66  61  82 E7        29.87F
WARROAD        PTSUNNY   66  61  82 E8        29.90R
CROOKSTON      CLOUDY    73  66  78 SE10      29.81S
FOSSTON        MOSUNNY   70  64  83 SE5       29.86S
DETROIT LAKES  MOSUNNY   72  66  83 SE10      29.88R
MOORHEAD       CLOUDY    73  68  83 SE10      29.83R
PARK RAPIDS    SUNNY     73  65  75 SE9       29.89R
MAHNOMEN       FAIR      73  67  82 SE9       29.84R
$$
MNZ006-009>011-018-025>026-211400-
   North Central Minnesota

CITY           SKY/WX    TMP DP  RH WIND       PRES   REMARKS
BAUDETTE       MOSUNNY   63  58  83 E7        29.90F
FLAG ISLAND    PTSUNNY   66  61  82 CALM      29.91S HAZE
INTL FALLS     MOSUNNY   65  57  75 E3        29.93F
WASKISH        MOSUNNY   64  54  68 E8        29.89F
BIG FORK       CLOUDY    64  57  77 CALM      29.92F
LONGVILLE      MOSUNNY   68  66  94 CALM      29.92R
GRAND RAPIDS   PTSUNNY   67  61  81 CALM      29.96R
CRANE LAKE     CLOUDY    59  57  94 CALM      29.95F
ORR            CLOUDY    64  55  72 CALM      29.92S
COOK           MOSUNNY   61  57  88 CALM      29.94F
WALKER         FAIR      69  66  90 CALM      29.90R
$$
MNZ012-019>021-037-211400-
   Northeast Minnesota

CITY           SKY/WX    TMP DP  RH WIND       PRES   REMARKS
DULUTH         CLOUDY    68  61  78 E6        29.94S
ELY            CLOUDY    61  59  94 CALM      29.95F
HIBBING        CLOUDY    65  59  81 E6        29.94F
EVELETH        MOSUNNY   64  58  80 CALM      29.96F
DULUTH HARBOR  CLOUDY    66  64  94 NE8       29.94S
TWO HARBORS    CLOUDY    70  61  73 NE3       29.93S
GRAND MARAIS     N/A     64  54  69 MISG      29.93F
G MARAIS ARPRT CLOUDY    61  52  72 CALM      30.00F
$$
MNZ029>031-032-039>041-046>048-054>057-064-211400-
   West Central Minnesota

CITY           SKY/WX    TMP DP  RH WIND       PRES   REMARKS
FERGUS FALLS   CLOUDY    73  68  83 SE12      29.83F
WHEATON        CLOUDY    72  68  88 SE14G20   29.85R
MORRIS         CLOUDY    72  70  94 SE7       29.88R
ALEXANDRIA     CLOUDY    71  68  90 SE10      29.93R
ELBOW LAKE     FAIR      71  69  94 E15       29.85F
WADENA         CLOUDY    72  68  88 SE7       29.88S
GLENWOOD       CLOUDY    70  68  94 E7        29.93R
APPLETON       CLOUDY    72  68  88 SE6       29.85S
BENSON         CLOUDY    73  70  88 S10       29.90S
ORTONVILLE     CLOUDY    70  66  88 SE5       29.86R FOG
MADISON        CLOUDY    72  72 100 S7        29.84F FOG
WILLMAR        FAIR      72  70  94 SE8       29.92R
$$
MNZ033>034-036-042>043-049>051-058-059-211400-
   Central Minnesota

CITY           SKY/WX    TMP DP  RH WIND       PRES   REMARKS
ST CLOUD       CLOUDY    69  68  96 E7        29.93R
SAUK CENTRE    FAIR      68  66  93 E8        29.92F
PAYNESVILLE    CLOUDY    71  67  88 E6        29.93R
AITKIN         CLOUDY    66  64  94 S3        29.93R FOG
PINE RIVER     CLOUDY    72  66  83 SE5       29.95R
BRAINERD         N/A     69  65  86 CALM      29.92R
STAPLES        PTSUNNY   72  64  78 CALM      29.90R
LONG PRAIRIE   FAIR      68  66  94 E9        29.91F
LITTLE FALLS   CLOUDY    68  64  88 SE9       29.91F
LITCHFIELD     CLOUDY    72  70  94 CALM      29.92R
BUFFALO        PTSUNNY   70  65  84 NE3       29.93S
MAPLE LAKE     CLOUDY    70  70  98 E3        29.93S
HUTCHINSON     CLOUDY    69  68  96 CALM      29.93R
$$
MNZ037-044-045-052-053-211400-
   East Central Minnesota

CITY           SKY/WX    TMP DP  RH WIND       PRES   REMARKS
PRINCETON      CLOUDY    70  68  94 CALM      29.95R FOG
MORA           PTSUNNY   64  64 100 S3        29.97R
CAMBRIDGE      PTSUNNY   72  66  83 CALM      29.94R
RUSH CITY      CLOUDY    67  65  94 CALM      29.96R
MOOSE LAKE     CLOUDY    66  64  94 CALM      29.93R
HINCKLEY       FAIR      68  66  94 CALM      29.96R
CLOQUET        CLOUDY    70  63  78 S3        29.94R
MCGREGOR       MOSUNNY   66  64  94 CALM      29.94R
$$
MNZ071>073-080-081-089-090-097-098-211400-
   Southwest Minnesota

CITY           SKY/WX    TMP DP  RH WIND       PRES   REMARKS
MONTEVIDEO     CLOUDY    72  72 100 SW12      29.86F
GRANITE FALLS  CLOUDY    72  67  85 S8        29.88F
CANBY          TSTM      73  69  88 SE8       29.87F
MARSHALL       HVY RAIN  68  65  90 S16       29.90F
REDWOOD FALLS  LGT RAIN  72  69  90 SW6       29.89R
OLIVIA         CLOUDY    70  66  88 SE6       29.89S
PIPESTONE      LGT RAIN  73  70  88 E7        29.94R
WINDOM         LGT RAIN  73  70  88 CALM      29.92R
WORTHINGTON    RAIN      71  70  96 N7        29.95R FOG
JACKSON        RAIN      72  70  94 CALM      29.94R
SLAYTON        LGT RAIN  71  68  89 SE5       29.94R
$$
MNZ065>067-074>077-082>085-091>093-211400-
   South Central Minnesota

CITY           SKY/WX    TMP DP  RH WIND       PRES   REMARKS
MANKATO        LGT RAIN  71  69  93 S10       29.89F
NEW ULM        TSTM      70  68  94 W8        29.94R
ST JAMES       LGT RAIN  72  70  94 NW9G16    29.94R
FAIRMONT       CLOUDY    73  70  90 E6        29.91F
GLENCOE        CLOUDY    69  69  98 E5        29.90F
FARIBAULT      LGT RAIN  70  66  88 SW7       29.95R
OWATONNA       RAIN      70  66  88 S5        29.95R
WASECA         TSTM      70  68  94 CALM      29.97R
ALBERT LEA     TSTM      72  70  94 S5        29.93
$$
MNZ078>079-086>088-094>096-211400-
   Southeast Minnesota

CITY           SKY/WX    TMP DP  RH WIND       PRES   REMARKS
ROCHESTER      CLOUDY    69  67  93 SE12      29.95R
RED WING       CLOUDY    72  66  83 SE7       29.91S
STANTON        CLOUDY    70  69  95 S5        29.92R
DODGE CENTER   TSTM      68  64  88 SE12      29.94R
WINONA         CLOUDY    70  68  94 E5        29.95R
AUSTIN         TSTM      72  68  88 SE10      29.96R
PRESTON        CLOUDY    69  65  88 SE7       29.96S
$$
ABBREVIATIONS USED IN REMARKS
   TC - TEMPERATURES IN CELSIUS
  WCI - WIND CHILL INDEX
   HX - HEAT INDEX
  VSB - VISIBILITY
$$



USA.gov is the U.S. government's official web portal to all federal, state and local government web resources and services.